Location: Augirein
(42.9320°N, 0.9181°E)
Time: 19:23:22
(UTC+00:00)

CZ-4C R/B - Pass Details

Date: 20 June 2021
Orbit: 606 x 1396 km, 63.4° (Epoch: 02 August)

Event Time Altitude Azimuth Distance (km) Brightness Sun altitude
Exits shadow 02:56:30 15° 199° (SSW) 1,808 3.4 -11.9°
Maximum altitude 03:00:24 63° 121° (ESE) 829 2.2 -11.5°
Drops below altitude 10° 03:05:58 10° 41° (NE) 2,501 6.3 -10.8°
Sets 03:08:45 0° 39° (NE) 3,573 7.7 -10.4°
